Wind_Speed
23 22 20 15 16 21 21 17 14 13 14 16 16 14 10 8 6 8 4 3 2 2 1 1 5 10 14 14 22 20 14 15 16 15 18 15 11 22 35 43 49 56 53 48 39 36 33 28 27
20 20 20 16 14 17 17 18 16 14 11 12 12 11 10 8 6 9 7 5 1 0 1 4 6 10 14 13 20 22 17 14 16 16 15 16 13 18 30 36 48 53 54 50 43 37 29 29 23
21 20 22 23 17 14 13 15 16 15 14 11 10 10 13 11 9 9 8 7 4 2 4 5 7 11 13 12 18 21 20 19 16 17 17 17 16 14 22 29 43 51 60 55 52 40 33 27 28
23 21 22 21 18 18 13 10 10 11 10 11 12 11 11 10 8 9 9 9 6 4 6 7 8 12 12 14 17 18 19 20 20 17 16 17 17 17 18 24 33 45 51 56 57 47 38 35 39
22 20 20 20 20 18 16 13 12 11 11 11 9 9 10 9 9 10 10 11 9 7 5 7 10 11 11 16 16 20 23 25 23 21 17 19 17 19 20 20 25 36 43 46 45 40 46 38 28
20 21 22 21 19 21 16 11 10 11 10 10 9 8 8 9 10 11 12 13 11 9 6 8 11 12 12 16 18 20 24 29 31 31 27 23 23 23 26 23 21 26 36 33 39 29 39 31 22
20 20 23 21 21 23 20 15 12 10 10 11 10 6 5 8 8 11 13 14 15 10 8 11 12 12 13 16 19 20 23 27 31 33 36 31 30 29 28 30 27 25 26 21 18 24 15 14 12
20 20 20 19 21 23 22 16 14 9 12 14 10 6 2 3 5 11 14 16 17 14 11 13 13 14 14 18 20 22 25 27 31 31 36 37 33 32 32 33 32 31 28 28 25 22 22 17 10
20 19 18 19 21 20 20 14 10 10 9 12 9 6 4 3 5 9 14 14 16 16 13 14 14 14 16 21 21 22 23 27 29 30 31 38 37 35 35 36 35 34 32 30 28 27 26 25 20
20 20 22 21 20 17 16 11 10 15 10 8 8 5 3 6 7 8 13 15 16 16 14 13 16 15 18 22 21 18 19 21 24 26 27 28 30 33 34 37 37 34 31 29 27 24 23 25 24
22 23 23 22 17 13 10 6 9 13 6 8 12 11 5 4 8 9 13 12 17 18 17 12 16 17 16 18 20 17 18 19 20 22 25 27 29 29 30 29 28 27 28 28 25 23 22 21 22
22 22 23 20 14 11 5 5 9 8 9 17 16 18 12 6 3 11 13 15 16 19 19 16 16 17 16 17 19 19 16 17 16 22 20 20 23 25 24 25 25 25 25 25 25 23 22 22 20
20 20 18 14 10 9 6 1 7 6 7 11 16 16 13 14 8 2 9 14 16 18 18 15 16 20 18 17 17 19 20 14 15 17 14 15 16 18 21 23 25 25 27 26 23 22 21 21 22
19 18 16 13 8 7 9 6 8 4 5 11 13 11 13 13 13 11 4 11 15 16 16 15 16 19 22 20 18 21 19 15 14 12 11 13 15 15 16 20 19 18 18 16 16 17 20 19 19
18 16 14 10 4 7 9 11 12 13 6 11 10 4 8 8 7 10 8 4 10 14 16 17 20 21 23 19 19 20 19 16 13 15 12 11 15 15 13 12 13 11 10 11 10 10 12 12 11
18 16 14 10 6 7 8 10 11 13 8 13 13 5 1 6 6 8 9 10 10 13 13 13 16 22 21 18 17 19 17 17 16 14 15 12 12 11 11 10 14 10 6 4 3 4 6 5 5
17 14 13 9 8 8 9 10 7 11 12 15 17 12 6 1 6 6 1 5 7 9 13 13 12 12 19 21 18 19 19 18 18 19 16 14 12 12 11 10 9 11 9 6 3 4 4 5 3
15 14 14 10 7 11 10 9 8 9 11 16 18 18 16 6 8 2 7 7 5 6 5 10 12 12 12 9 11 17 23 22 21 22 19 16 16 13 13 13 11 8 9 9 7 5 6 8 7
14 13 11 9 8 13 9 9 9 10 15 14 14 18 14 14 15 16 11 12 12 8 7 6 11 11 12 4 3 6 18 23 26 27 24 20 19 20 17 14 11 10 8 11 11 9 9 8 11
15 14 10 9 8 13 14 12 13 12 17 11 13 16 19 15 12 13 17 14 14 12 13 12 13 10 10 8 3 8 8 7 19 28 31 25 22 21 20 17 15 14 15 13 12 13 13 14 12
16 14 13 10 7 10 14 17 14 15 17 14 11 12 11 10 7 8 14 10 11 9 12 16 16 15 16 11 6 7 10 11 9 21 30 32 29 27 24 26 20 19 17 17 13 12 16 14 18
17 14 14 12 9 7 14 16 13 14 17 20 14 11 8 6 10 10 15 14 10 10 14 15 15 16 17 15 11 14 16 14 13 13 23 28 33 31 31 27 22 20 19 21 21 18 18 21 23
17 15 13 13 13 11 13 15 16 14 16 20 21 16 11 10 7 10 12 11 10 14 18 19 15 15 19 16 16 17 19 19 16 16 16 27 31 37 36 35 29 26 27 24 23 25 25 18 24
17 17 15 15 15 15 13 12 12 16 15 15 20 21 19 19 19 14 10 11 13 18 22 23 22 22 23 25 25 25 24 20 21 17 19 19 28 37 38 36 37 35 32 33 27 23 26 24 29
17 19 19 16 10 15 19 17 14 13 15 12 13 15 17 17 19 17 13 11 11 10 19 24 24 25 26 29 31 30 26 27 21 16 17 23 30 28 31 40 41 43 38 34 34 28 28 33 37
17 17 19 20 16 13 18 20 16 14 13 12 10 13 17 19 18 18 18 16 11 9 14 23 26 24 23 22 20 21 22 17 18 19 18 20 22 29 32 36 37 39 45 44 41 41 43 41 41
18 17 18 21 19 13 18 19 15 17 15 14 12 11 16 23 18 18 20 14 9 6 14 17 18 19 19 22 18 17 20 17 18 19 22 27 27 28 30 31 33 35 37 39 44 46 48 49 48
20 20 18 20 22 18 17 20 17 19 20 17 15 16 18 21 23 24 18 15 9 5 12 18 11 12 19 14 13 12 16 19 21 24 29 33 33 34 34 31 34 37 37 39 41 43 46 49 49
22 21 20 16 22 21 18 19 20 20 26 22 21 23 20 19 18 21 24 21 15 9 8 16 13 21 21 20 17 25 25 30 29 33 35 39 38 37 38 37 38 40 45 46 46 46 47 47 48
24 24 21 17 20 22 21 25 22 25 32 26 26 28 27 22 26 28 26 23 21 16 14 11 11 12 21 27 28 29 24 27 28 27 25 26 32 40 39 41 41 42 45 48 49 49 49 50 51
Wind_Direction
337 333 331 330 337 344 339 339 322 292 264 258 259 255 254 243 226 234 240 231 269 293 268 137 22 7 4 356 10 23 37 40 44 36 35 47 95 153 168 176 180 180 183 185 168 174 176 196 228
331 343 351 343 356 340 339 341 345 338 309 270 256 258 247 239 229 227 230 208 164 357 129 97 44 19 17 4 23 32 42 42 36 36 45 53 77 139 167 172 181 179 176 188 180 175 167 186 202
335 343 356 358 352 338 346 355 356 349 335 315 275 255 252 241 238 215 205 202 129 113 145 104 57 30 25 27 34 41 43 45 49 47 56 70 79 121 160 174 182 182 187 185 189 189 197 193 200
336 344 353 356 357 343 333 353 12 2 342 319 301 282 262 239 212 204 189 190 149 112 147 118 69 42 32 46 46 46 50 49 52 54 59 72 83 95 148 166 180 187 193 199 204 198 197 229 235
334 342 349 356 354 342 341 335 341 345 347 341 310 270 250 228 204 196 184 187 169 132 156 123 87 52 50 69 69 62 67 67 63 59 68 75 80 91 105 151 168 188 197 205 212 215 214 220 198
336 353 346 345 344 335 337 344 328 326 327 319 308 293 255 222 198 190 183 183 181 146 142 135 105 70 69 84 86 77 78 72 70 66 69 94 86 91 97 113 143 167 194 203 212 218 214 233 223
341 345 341 341 343 335 341 348 341 334 336 338 324 294 249 225 198 185 183 182 179 167 143 151 119 87 85 98 96 89 82 78 70 66 71 93 92 95 99 103 115 133 146 154 178 207 209 233 232
337 339 339 339 343 338 339 343 346 352 347 344 339 311 279 192 187 189 184 183 177 176 159 159 136 103 106 112 105 99 88 82 78 73 74 87 91 96 97 103 110 115 121 130 137 155 156 155 155
330 331 325 335 342 335 337 351 3 2 334 333 326 321 279 253 180 180 184 180 177 179 172 160 148 119 125 123 120 104 97 87 85 81 80 90 89 94 98 102 104 109 115 119 125 132 135 125 124
321 319 316 324 329 331 341 7 31 11 355 346 344 318 269 210 204 173 184 179 179 180 177 164 157 138 135 126 136 118 109 99 90 83 87 92 92 100 100 100 100 103 105 107 109 111 114 116 115
308 308 308 320 324 328 336 21 13 9 78 50 38 7 350 177 176 186 166 186 184 176 177 172 171 160 152 136 140 148 120 105 101 98 91 92 98 100 103 99 96 99 99 101 103 103 105 113 109
299 300 309 319 321 321 325 39 10 25 79 86 74 58 44 13 173 166 177 163 187 181 173 180 176 173 163 156 156 164 158 132 115 111 103 99 99 103 109 111 108 103 106 105 105 106 107 110 108
301 305 310 319 315 302 301 336 360 16 115 113 91 71 59 66 51 140 169 174 180 191 179 179 184 179 176 173 164 166 161 159 142 129 114 118 114 111 113 111 110 112 113 107 100 98 104 110 109
302 298 302 314 307 281 286 272 302 346 172 141 120 94 80 57 74 56 133 179 183 184 195 186 197 188 182 175 176 167 172 162 179 171 133 140 139 136 127 123 118 112 116 112 102 106 107 111 111
294 298 296 284 283 256 262 260 273 272 213 206 154 130 77 59 46 89 71 124 188 185 192 187 192 193 186 181 181 188 187 174 177 186 158 141 151 146 141 137 141 138 125 101 100 97 107 106 97
297 307 296 269 249 245 253 265 263 254 245 224 215 234 74 64 77 77 52 68 132 166 172 166 186 200 204 208 198 195 200 205 199 196 185 167 159 172 168 168 157 162 163 151 126 127 146 129 117
294 302 300 262 250 256 256 262 249 251 241 220 232 235 225 214 141 155 92 73 92 141 154 157 159 171 213 224 217 218 218 219 216 215 207 211 198 186 189 187 188 184 185 178 202 220 251 233 232
301 311 308 298 274 256 263 255 265 242 245 233 229 234 241 244 214 269 218 177 175 157 160 172 185 194 198 191 217 230 229 231 233 226 222 223 215 207 204 209 211 218 209 218 214 217 224 245 256
311 305 301 286 277 266 251 258 252 236 224 237 243 233 239 267 263 282 270 228 202 192 215 225 226 204 176 168 139 249 239 234 238 242 236 231 232 232 223 226 222 219 223 228 230 228 247 264 273
308 294 292 284 261 246 250 261 249 234 213 234 245 243 252 267 269 267 258 233 220 244 252 240 213 186 182 153 110 4 23 290 248 243 242 238 238 237 235 236 231 229 230 233 239 238 249 263 266
294 294 294 282 266 234 252 263 259 242 214 208 231 244 249 275 300 260 236 213 193 227 229 228 219 205 203 218 242 312 325 318 316 246 238 241 235 240 239 239 235 246 245 233 247 260 247 269 259
289 294 297 287 271 230 243 248 247 247 229 214 220 221 232 299 286 254 233 228 222 227 220 218 219 216 229 220 242 297 310 313 318 267 239 242 240 240 240 244 241 231 234 235 247 256 263 267 261
285 285 291 291 287 253 242 252 240 252 235 216 221 216 242 281 249 241 245 224 237 239 230 219 225 244 248 248 265 283 292 302 310 283 243 234 237 240 243 242 243 245 241 245 258 269 265 270 255
283 278 282 296 296 281 247 273 263 256 239 226 225 234 252 267 261 275 258 278 272 249 238 236 244 255 259 266 269 273 280 292 297 286 256 254 248 244 245 246 247 254 253 252 261 257 259 269 265
279 282 280 281 280 264 272 274 267 245 243 219 227 237 243 257 255 271 257 259 275 263 246 239 243 249 256 263 266 270 269 277 282 268 272 258 257 265 254 251 252 253 253 249 255 256 253 244 259
290 278 276 273 282 277 264 267 264 246 245 230 216 230 239 246 230 243 247 257 279 263 254 236 235 241 250 255 258 268 274 271 278 278 269 270 270 260 257 253 256 259 252 249 250 251 256 252 266
285 287 274 268 264 255 262 266 264 258 251 246 214 238 242 250 246 227 233 242 284 247 244 225 231 235 244 249 255 265 263 265 255 273 274 284 277 275 266 253 255 254 258 258 254 256 255 257 261
301 287 283 265 258 254 245 256 262 268 255 244 237 227 249 251 233 231 246 254 242 229 235 232 224 221 253 241 240 260 288 275 269 269 284 290 286 270 267 257 247 256 256 254 256 258 257 257 259
292 288 279 271 261 261 259 259 254 261 259 251 243 218 219 240 249 266 263 254 231 216 238 244 240 264 257 259 253 271 286 288 295 301 297 292 282 268 264 257 249 243 247 250 253 256 259 261 262
288 290 297 295 262 259 259 260 249 248 258 251 252 226 212 233 263 271 260 254 240 231 226 237 260 257 244 256 266 278 296 294 298 303 301 296 280 265 263 260 257 256 254 255 257 258 259 262 266
Height
10984 10981 10978 10975 10971 10967 10964 10963 10961 10959 10959 10960 10961 10962 10962 10962 10962 10962 10961 10961 10961 10960 10960 10961 10960 10958 10955 10953 10948 10940 10936 10932 10928 10923 10919 10914 10911 10913 10920 10927 10935 10945 10954 10960 10964 10969 10973 10977 10980
10982 10980 10976 10973 10970 10967 10962 10959 10956 10955 10954 10956 10957 10958 10958 10959 10959 10960 10960 10960 10960 10960 10960 10960 10959 10958 10955 10953 10949 10943 10938 10933 10929 10925 10922 10919 10917 10918 10922 10928 10934 10942 10951 10955 10961 10966 10972 10976 10979
10979 10977 10974 10970 10968 10966 10963 10959 10955 10953 10952 10952 10954 10956 10956 10957 10957 10957 10959 10959 10959 10959 10960 10960 10959 10957 10956 10954 10950 10946 10941 10936 10932 10929 10926 10923 10922 10923 10926 10930 10935 10941 10947 10954 10961 10967 10971 10977 10980
10976 10974 10973 10970 10967 10963 10962 10961 10958 10954 10951 10950 10949 10951 10953 10954 10955 10955 10956 10958 10959 10959 10960 10960 10960 10958 10957 10956 10952 10949 10944 10940 10936 10933 10930 10928 10927 10927 10928 10932 10937 10943 10948 10953 10956 10966 10971 10977 10979
10973 10972 10970 10967 10964 10962 10960 10958 10957 10955 10952 10950 10948 10948 10950 10952 10953 10954 10955 10957 10958 10958 10960 10961 10961 10960 10959 10957 10954 10952 10949 10944 10940 10936 10934 10932 10930 10931 10930 10934 10938 10944 10949 10954 10958 10963 10968 10972 10978
10971 10969 10966 10963 10960 10958 10958 10957 10955 10953 10951 10949 10947 10946 10948 10950 10951 10952 10954 10956 10958 10959 10960 10961 10962 10962 10961 10959 10957 10955 10953 10949 10946 10942 10938 10936 10935 10934 10934 10936 10939 10945 10951 10955 10959 10964 10970 10973 10977
10970 10968 10965 10962 10959 10957 10955 10954 10954 10953 10951 10948 10946 10945 10946 10948 10950 10951 10952 10954 10957 10959 10960 10962 10963 10964 10964 10962 10960 10959 10957 10955 10952 10949 10944 10941 10941 10940 10940 10941 10944 10947 10953 10958 10962 10967 10971 10977 10979
10969 10968 10963 10961 10959 10956 10954 10952 10952 10952 10949 10947 10946 10945 10945 10946 10948 10950 10951 10953 10955 10958 10960 10962 10964 10965 10966 10964 10964 10963 10962 10961 10957 10954 10952 10948 10948 10947 10947 10948 10951 10954 10957 10960 10964 10970 10974 10975 10978
10968 10966 10963 10961 10959 10956 10953 10951 10952 10952 10949 10945 10945 10944 10945 10946 10947 10949 10951 10953 10955 10958 10960 10962 10965 10965 10967 10966 10967 10966 10967 10966 10963 10961 10959 10957 10955 10955 10954 10955 10957 10960 10962 10965 10970 10973 10975 10976 10980
10966 10963 10960 10960 10958 10955 10953 10951 10952 10951 10948 10945 10943 10943 10943 10944 10946 10948 10950 10952 10954 10958 10960 10962 10964 10966 10968 10967 10969 10970 10969 10970 10969 10967 10965 10964 10963 10962 10962 10962 10964 10965 10968 10970 10973 10975 10976 10977 10979
10962 10960 10957 10958 10956 10954 10953 10952 10952 10951 10948 10947 10944 10942 10942 10942 10944 10947 10949 10953 10954 10956 10959 10962 10964 10967 10969 10969 10970 10972 10973 10973 10973 10972 10972 10971 10970 10970 10969 10969 10969 10970 10972 10974 10976 10977 10979 10980 10981
10959 10957 10955 10955 10954 10952 10951 10952 10951 10952 10949 10948 10948 10947 10944 10942 10943 10944 10948 10949 10953 10955 10957 10959 10963 10967 10969 10970 10970 10972 10974 10976 10977 10977 10976 10975 10975 10975 10975 10975 10975 10974 10975 10978 10980 10982 10983 10983 10984
10956 10954 10953 10953 10952 10950 10949 10951 10951 10952 10952 10951 10950 10950 10949 10947 10945 10945 10946 10948 10951 10955 10957 10959 10962 10964 10968 10972 10972 10973 10975 10976 10978 10979 10979 10979 10978 10978 10979 10979 10980 10980 10981 10983 10984 10984 10985 10987 10989
10954 10951 10951 10952 10951 10950 10949 10950 10949 10950 10952 10953 10951 10951 10951 10951 10951 10948 10947 10947 10949 10953 10957 10959 10962 10965 10967 10970 10974 10974 10975 10976 10979 10980 10982 10981 10981 10981 10981 10982 10983 10984 10985 10986 10988 10989 10989 10989 10990
10949 10949 10949 10950 10951 10949 10949 10947 10947 10946 10951 10952 10953 10952 10951 10953 10952 10952 10950 10947 10949 10952 10955 10957 10959 10962 10966 10969 10972 10975 10975 10976 10977 10978 10981 10982 10983 10983 10984 10984 10985 10986 10988 10989 10990 10991 10991 10991 10991
10946 10946 10946 10947 10949 10948 10947 10945 10943 10943 10948 10949 10950 10950 10950 10952 10953 10952 10954 10952 10950 10952 10956 10958 10959 10961 10965 10968 10971 10973 10975 10976 10977 10979 10979 10980 10982 10983 10984 10985 10986 10986 10988 10988 10990 10991 10991 10991 10991
10944 10944 10943 10944 10946 10945 10945 10943 10940 10941 10944 10946 10947 10949 10950 10951 10953 10953 10954 10954 10954 10955 10958 10960 10960 10962 10965 10967 10969 10971 10973 10974 10975 10977 10978 10980 10981 10982 10983 10984 10985 10986 10987 10987 10989 10989 10989 10991 10990
10942 10942 10940 10941 10942 10942 10941 10941 10941 10940 10941 10944 10945 10947 10949 10951 10952 10954 10955 10954 10956 10956 10957 10959 10960 10961 10964 10965 10967 10968 10970 10971 10973 10975 10976 10978 10979 10980 10981 10982 10984 10985 10986 10985 10986 10987 10988 10989 10989
10940 10939 10938 10938 10939 10938 10939 10939 10938 10939 10939 10940 10941 10944 10947 10949 10950 10952 10954 10954 10954 10955 10956 10957 10958 10960 10962 10963 10964 10965 10966 10967 10969 10970 10972 10974 10976 10978 10979 10979 10981 10982 10983 10983 10984 10984 10985 10986 10986
10938 10935 10934 10935 10937 10936 10935 10935 10935 10938 10939 10940 10938 10941 10943 10947 10948 10949 10951 10951 10952 10953 10954 10955 10956 10957 10959 10958 10959 10961 10962 10963 10964 10966 10968 10970 10972 10974 10975 10976 10978 10978 10980 10981 10980 10981 10982 10983 10982
10935 10933 10932 10933 10933 10934 10933 10931 10934 10936 10936 10937 10937 10940 10941 10943 10944 10946 10948 10948 10948 10949 10950 10952 10952 10953 10953 10955 10955 10957 10959 10958 10957 10958 10959 10962 10966 10969 10970 10971 10973 10975 10975 10976 10976 10977 10978 10980 10979
10930 10930 10929 10930 10930 10931 10929 10929 10931 10932 10934 10935 10935 10936 10939 10939 10941 10943 10945 10945 10945 10945 10946 10948 10948 10949 10950 10950 10951 10952 10953 10954 10953 10953 10954 10957 10960 10963 10964 10966 10968 10970 10970 10970 10970 10972 10974 10973 10971
10926 10926 10926 10927 10927 10928 10928 10926 10929 10930 10931 10932 10932 10933 10935 10937 10937 10939 10940 10940 10939 10941 10941 10942 10944 10946 10946 10946 10947 10947 10948 10949 10949 10949 10949 10949 10952 10955 10957 10961 10963 10964 10964 10964 10964 10964 10965 10967 10966
10922 10922 10922 10921 10924 10924 10925 10924 10926 10926 10928 10929 10930 10930 10931 10934 10934 10934 10936 10935 10934 10934 10936 10938 10939 10940 10941 10942 10943 10944 10945 10943 10944 10945 10944 10944 10946 10948 10951 10954 10956 10956 10956 10957 10957 10957 10957 10958 10958
10919 10918 10918 10919 10920 10920 10919 10920 10921 10923 10923 10924 10926 10926 10928 10931 10931 10931 10930 10930 10930 10929 10930 10930 10931 10933 10934 10936 10939 10939 10941 10940 10942 10941 10939 10940 10941 10942 10944 10946 10946 10946 10948 10948 10949 10949 10949 10950 10949
10913 10915 10916 10915 10917 10917 10915 10914 10917 10919 10919 10920 10922 10923 10926 10929 10929 10928 10926 10926 10926 10924 10923 10923 10924 10926 10928 10930 10931 10933 10934 10935 10936 10936 10936 10935 10936 10936 10937 10938 10938 10937 10939 10940 10939 10940 10941 10941 10940
10908 10910 10911 10913 10913 10913 10913 10911 10911 10912 10914 10914 10917 10920 10922 10923 10925 10925 10924 10926 10925 10920 10918 10919 10920 10923 10925 10925 10926 10929 10930 10929 10931 10931 10930 10930 10929 10929 10930 10931 10930 10930 10929 10930 10931 10931 10931 10931 10931
10905 10905 10906 10907 10908 10909 10908 10907 10908 10906 10909 10909 10911 10915 10917 10916 10917 10919 10920 10922 10923 10919 10918 10920 10920 10922 10923 10923 10923 10924 10924 10924 10923 10923 10923 10923 10923 10921 10921 10922 10923 10922 10921 10921 10922 10922 10922 10921 10920
10899 10898 10898 10901 10901 10903 10904 10902 10904 10902 10900 10903 10905 10908 10912 10914 10914 10914 10916 10918 10919 10918 10917 10919 10921 10920 10921 10921 10921 10920 10920 10919 10918 10916 10913 10911 10912 10912 10910 10911 10913 10913 10913 10912 10912 10912 10911 10910 10909
10892 10892 10895 10896 10896 10897 10899 10895 10898 10897 10891 10896 10897 10902 10905 10908 10909 10909 10911 10915 10917 10916 10914 10914 10916 10916 10917 10916 10916 10917 10914 10911 10909 10907 10904 10901 10900 10901 10901 10901 10901 10902 10902 10902 10903 10901 10899 10898 10898